Tracking 30262 objects as of 17-Feb-2025
HD Live streaming from Space Station
objects crossing your sky now

PROX-1 (NANOSAT-7)

Track PROX-1 (NANOSAT-7) now!
10-day predictions
PROX-1 (NANOSAT-7) is classified as:


NORAD ID: 44339
Int'l Code: 2019-036A
Perigee: 643.3 km
Apogee: 654.0 km
Inclination: 24.0 °
Period: 97.6 minutes
Semi major axis: 7019 km
RCS: Unknown
Launch date: June 25, 2019
Source: United States (US)
Launch site: AIR FORCE EASTERN TEST RANGE (AFETR)

Uplink (MHz): 437.345
Downlink (MHz): 2300.000
Beacon (MHz):
Mode:
Call sign:
Status: Unknown


Uplink (MHz): 437.345
Downlink (MHz): 2300.000
Beacon (MHz):
Mode:
Call sign:
Status: Unknown

Your satellite tracking list
Your tracking list is empty




NASA's NSSDC Master Catalog

Two Line Element Set (TLE):
1 44339U 19036A   25048.16193773  .00020862  00000-0  29121-2 0  9993
2 44339  23.9981  78.3166 0007579 224.8890 135.0994 14.76143001301450
Source of the keplerian elements: AMSAT